Regional Weather Roundup
Issued by NWS

Home | Current Version | Previous Version | Text Only | Print | Product List | Glossary On
Versions: 1 2 3 4 5 6 7 8 9 10 11 12 13 14 15 16 17 18 19 20 21 22 23 24 25 26 27 28 29 30 31 32 33 34 35 36 37 38 39 40 41 42 43 44 45 46 47 48 49 50
873
ASUS44 KJAN 220603
RWRMS

MISSISSIPPI HOURLY WEATHER ROUNDUP
NATIONAL WEATHER SERVICE JACKSON MS
1200 AM CST SAT NOV 22 2014

NOTE: "FAIR: INDICATES FEW OR NO CLOUDS BELOW 12,000 FEET WITH NO
SIGNIFICANT WEATHER AND/OR OBSTRUCTIONS TO VISIBILITY.

MSZ001>002-007>008-010>013-018>021-025>028-034>036-220700-
NORTHWEST MISSISSIPPI

CITY           SKY/WX    TMP DP  RH WIND       PRES   REMARKS
CLARKSDALE     CLOUDY    55  48  76 SE5       30.29R
CLEVELAND      CLOUDY    59  49  70 S7        30.27R
GREENWOOD      PTCLDY    57  45  64 SE8       30.28F
6HR MIN TEMP:  57; 6HR MAX TEMP:  64;

GREENVILLE     PTCLDY    56  47  71 S7        30.26S
6HR MIN TEMP:  55; 6HR MAX TEMP:  64;

GRENADA        FAIR      52  45  76 CALM      30.30S
OLIVE BRANCH   CLOUDY    54  50  87 S6        30.29S
OXFORD         FAIR      54  45  71 SE6       30.32S
TUNICA         PTCLDY    54  46  76 SE8       30.28F
$$

MSZ003>006-009-014>017-022>024-029>033-037>039-220700-
NORTHEAST MISSISSIPPI

CITY           SKY/WX    TMP DP  RH WIND       PRES   REMARKS
COLUMBUS AFB   NOT AVBL
CORINTH        CLOUDY    52  41  66 S5        30.31S
GOLDN TRIANGLE CLEAR     54  43  66 SE10      30.31F
STARKVILLE     MOCLDY    52  46  82 SE5       30.31S
TUPELO         PTCLDY    53  43  68 SE6       30.32S
6HR MIN TEMP:  51; 6HR MAX TEMP:  58;

$$

MSZ040-058-220700-
CENTRAL MISSISSIPPI

CITY           SKY/WX    TMP DP  RH WIND       PRES   REMARKS
JACKSON INTL   CLEAR     49  44  83 S6        30.29F
6HR MIN TEMP:  48; 6HR MAX TEMP:  62;

JACKSON HAWKNS PTCLDY    52  45  77 SE3       30.29F
6HR MIN TEMP:  51; 6HR MAX TEMP:  64;

MERIDIAN KEY   CLEAR     43  41  93 S3        30.31F
6HR MIN TEMP:  43; 6HR MAX TEMP:  54;

MERIDIAN NAS   CLEAR     45  42  89 CALM      30.32F
6HR MIN TEMP:  44; 6HR MAX TEMP:  58;

RAYMOND        FAIR      48  45  87 MISG      30.28F
VICKSBURG      CLOUDY    53  48  83 CALM      30.28S
6HR MIN TEMP:  53; 6HR MAX TEMP:  60;

$$

MSZ059>079-220700-
SOUTH MISSISSIPPI

CITY           SKY/WX    TMP DP  RH WIND       PRES   REMARKS
BROOKHAVEN     FAIR      52  46  82 CALM      30.29F
HATTIESBURG    CLEAR     43  42  97 CALM      30.31S
6HR MIN TEMP:  43; 6HR MAX TEMP:  58;

MCCOMB         CLEAR     50  45  83 CALM      30.27F
6HR MIN TEMP:  50; 6HR MAX TEMP:  60;

NATCHEZ        CLOUDY    57  48  72 SE6       30.28R
6HR MIN TEMP:  57; 6HR MAX TEMP:  63;

PINE BELT      CLEAR     43  37  81 CALM      30.31S
6HR MIN TEMP:  43; 6HR MAX TEMP:  55;

$$

MSZ080>082-220700-
COASTAL MISSISSIPPI

CITY           SKY/WX    TMP DP  RH WIND       PRES   REMARKS
BILOXI         NOT AVBL
PASCAGOULA     CLEAR     44  43  96 NE3       30.29S
6HR MIN TEMP:  41; 6HR MAX TEMP:  49;

GULFPORT       CLEAR     52  47  83 NE3       30.27S
6HR MIN TEMP:  51; 6HR MAX TEMP:  58;

$$



USA.gov is the U.S. government's official web portal to all federal, state and local government web resources and services.